STARLINK-32256, 60362

Orbit data source: Space-Track

STARLINK-32256, 60362 is a payload satellite owned by SpaceX/Seattle (US) in LEO that was launched on Sun, 04 Aug 2024 UTC via an FALCON 9 launch vehicle from the Air Force Western Test Range (AFWTR). Payload-class satellites include a variety of spacecraft equipped with specific instruments for various scientific and technological missions. These include communications satellites like Starlink; space stations such as the ISS; scientific satellites like the Hubble; Earth observation satellites from companies like Planet Labs, Umbra, and HawkEye 360; GPS; miniature CubeSats for education and research; and military/defense satellites.

Loading next visibility...
Identifier
60362, 2024-138H
Orbit
LEO
Last TLE update
14 hours ago
Origin
Manufacturer
SpaceX/Seattle
Mission
Operational Commercial Communications
Bus & Motor
STARLINK V2M, Unknown motor
Mass
730 kg wet, ~700 kg dry
Launch date (UTC)
2024-08-04 (11 months ago)
Launch vehicle
FALCON 9
Launch site
Air Force Western Test Range (AFWTR)
Object type
Payload
Rocket body
Debris
Shape & HBR
Box + 2 Pan, 29 m
Radar Cross Section
33.884 m², Large (>1 m²)

Expand to show TLE details & history

TLE from 14 hours ago
0 STARLINK-32256
1 60362U 24138H   25181.83931726 -.00000222  00000-0  46432-5 0  9992
2 60362  53.1610  39.7408 0001231  86.3254 273.7887 15.30193205 52054
Epoch: 2025-06-30T20:08Z
TLE epoch observation values (Epoch: 2025-06-30T20:08:37.011Z)
Latitude
-0.00005°
Longitude
178.44318°
Altitude
476.08 km
Speed
7.629 km/s
True Right ascension
02h 38m 57s
True Declination
0° 00' 00"
Sunlit
Object was in daylight at epoch
Visualization orbit readout
Latitude
48.9957°
Longitude
-125.37519°
Altitude
480.024 km
Speed
7.632 km/s
Apparent Right ascension
08h 22m 57s
Apparent Declination
7° 27' 16"
Sunlit
Object is in daylight
Visualization observer readout
Local Sidereal Time
22:11:52
Azimuth
34.293° NE
Elevation
-36.369°
Doppler factor
1
Orbital elements
Apogee altitude
476.335 km
Perigee altitude
474.648 km
Semi-major axis
6,853.629 km
Eccentricity
0.00012
Inclination
53.161°
RAAN
39.7408°
Arg. of periapsis
86.3254°
True anomaly
Unknown
Mean anomaly
273.7887°
Eccentric anomaly
Unknown
Mean motion
3.82527 °/min
Orbital period
94.11 mins
BSTAR
0.0000046432
Loading maneuver chart data...
Loading SW <> Apogee altitude chart data...
Loading historical data...
Loading historical data...
Loading historical data...
Loading historical data...
Loading historical data...
Loading historical data...
Loading historical data...

STARLINK-32256 Visibility forecast

Observer location: undefined°, undefined°

Span
Click to sort rows by Start time (UTC) header in descending order
Start Az.
Max El. time (UTC)
Max El. Az.
Max El.
End time (UTC)
End Az.
5 mins2025-07-01 16:41:24.264Z198.755° SSW2025-07-01 16:44:24.264Z112.286° ESE32.075°2025-07-01 16:46:24.264Z69.663° E
4 mins2025-07-01 18:20:24.264Z291.397° WNW2025-07-01 18:22:24.264Z345.46° N24.154°2025-07-01 18:24:24.264Z24.763° NE
4 mins2025-07-01 23:17:24.264Z344.833° N2025-07-01 23:18:24.264Z14.129° NNE30.666°2025-07-01 23:21:24.264Z96.408° ESE
4 mins2025-07-02 00:55:24.264Z261.194° W2025-07-02 00:56:24.264Z235.812° WSW23.374°2025-07-02 00:59:24.264Z174.61° S
|